Location: Monteux
(44.0348°N, 4.9972°E)
Time: 14:42:21
(UTC+00:00)

X-37B - Pass Details

Date: 30 November 2020
Orbit: 383 x 391 km, 45.1° (Epoch: 22 January)

Event Time Altitude Azimuth Distance (km) Brightness Sun altitude
Rises 18:17:39 0° 262° (W) 2,259 5.9 -23.5°
Reaches altitude 10° 18:19:43 10° 264° (W) 1,407 4.5 -23.9°
Enters shadow 18:21:35 32° 269° (W) 685 2.4 -24.2°
